Vertical_Velocity
0 1 -2 -2 -1 -2 -0 1 0 1 1 3 2 0 1 -0 -0 -0 -1 -1 -1 -1 0 0 -0 0 3 3 -2 -3 -3 -3 -0 0 -2 -3 3 1 1 0 -2 3 -1 0 -1 -4 -2
-1 -1 -1 0 -0 -1 -2 -0 0 -0 0 0 -0 2 1 0 1 -0 -1 -2 -1 -1 0 0 1 -3 -2 4 2 3 -4 -3 -1 -3 1 -4 -0 -2 -2 -1 1 2 -0 -3 -2 -1 1
-1 -1 -1 -1 1 1 0 1 0 -1 1 -1 1 0 0 -0 1 -1 -1 -1 1 -2 0 2 2 0 0 -2 -0 -2 -1 -2 -2 -0 -1 -2 -4 -2 -1 -1 -1 -2 0 -1 1 -3 -0
-0 -1 -1 0 1 1 -1 0 -1 3 1 -0 -1 -0 -0 -2 0 -1 -1 -1 -2 -3 -1 1 -2 1 0 -1 1 2 -1 -3 0 -1 0 0 4 -2 -1 -1 -0 2 3 -0 2 1 0
1 -1 -2 -1 -1 -1 -1 -2 -1 -2 -2 -1 -0 -2 -1 -1 -3 -1 -4 -4 -2 0 1 0 -2 3 2 -0 -2 -2 -1 -5 -3 -2 -0 -3 -4 3 -0 1 -2 -0 -1 1 3 -1 1
-1 0 2 -0 1 1 -2 -0 1 1 -2 -3 -2 -4 -5 -4 -4 -7 -7 0 -5 -3 -8 -0 -1 7 -4 2 -2 -1 -2 -0 -2 -3 -4 -2 0 1 2 -0 -4 1 -1 -3 1 2 2
-3 -3 -3 -1 3 2 -0 -2 -5 -1 1 2 -4 -4 -2 -4 -4 -6 -14 -18 -29 -4 -3 -1 -0 1 -0 -1 1 0 -0 0 -2 -1 1 0 1 -1 1 1 2 1 2 1 -4 2 -1
-1 -1 1 -2 0 1 0 5 3 -2 -3 -0 2 -1 0 -5 -4 -1 -1 -11 -1 -2 -10 -1 1 -3 -2 1 3 -1 -3 3 1 1 -1 2 -1 3 0 -0 1 0 1 -4 -5 0 -1
-2 -3 -2 2 -0 1 -1 2 -1 -0 0 -2 -7 -5 -2 -1 -5 -4 -2 1 -1 1 3 2 -1 -2 -3 -3 1 3 0 -0 1 1 0 1 1 -1 -0 -1 2 -1 2 -1 3 -2 -2
3 0 -6 -2 -2 1 0 -1 2 -2 -4 -2 4 0 -0 -1 0 -2 -3 -4 -1 1 1 -11 1 0 -0 1 2 -3 -4 -1 1 1 0 -0 2 0 0 0 3 1 1 1 0 -0 -4
-3 2 1 -4 -1 -5 -4 0 -5 -1 -0 0 0 0 -3 -3 -7 -3 1 1 2 -2 -3 -12 2 1 -2 -1 -1 1 1 3 -0 0 -4 -12 1 1 1 -3 1 -0 1 1 1 0 -1
10 4 4 6 -2 3 4 -1 -0 -3 3 1 -1 -1 1 -3 -1 -4 -5 -6 -1 -9 -13 -1 1 1 2 1 1 0 -1 -3 -1 2 2 -4 -1 1 -0 1 1 1 1 2 1 0 -2
7 -0 -2 -2 3 4 6 -8 -4 6 1 -8 -1 8 3 9 -2 1 -0 -4 -6 -1 -10 -1 2 -0 0 -1 -0 0 1 1 0 -0 0 -0 -0 1 -0 2 2 2 1 -4 -5 -4 -8
-2 -1 5 -2 0 -9 6 -6 -3 1 -1 3 -3 -10 -3 7 5 0 1 -3 1 -3 -1 1 -0 0 0 1 -1 1 -1 -0 0 3 0 -1 -5 -0 1 -1 -1 -2 -1 -4 -2 -0 -2
2 5 -2 -1 5 0 5 1 -3 2 -1 5 5 3 1 -4 -3 -0 0 2 -9 -2 -2 1 -2 2 -2 2 1 1 0 -1 0 -2 -2 1 0 1 0 0 -2 2 -0 -1 0 -1 0
-6 -4 3 2 -2 2 1 3 4 -1 -1 4 2 1 -4 -1 3 5 1 -4 -1 -1 -0 -1 -1 1 -0 -1 0 3 0 -1 0 0 1 -2 -3 -0 2 -0 -2 -1 2 -3 -0 -1 -0
-9 2 -1 -4 -1 3 -2 -1 3 3 1 2 9 4 -2 4 13 4 -2 -4 -1 -1 -4 -1 -2 1 -3 0 2 -1 -5 -4 0 1 1 1 1 0 -0 0 -3 3 0 1 -2 -1 -2
2 -1 -8 -0 -1 -4 2 -4 -2 3 0 1 3 2 2 5 0 0 -0 -4 -2 -1 4 1 1 0 -1 0 0 1 -1 -2 -2 -2 -1 -3 2 0 -7 1 -1 1 -2 -2 -3 -4 -2
-1 4 0 -1 -4 -4 0 2 5 5 0 1 2 -1 4 3 0 -0 -1 -1 1 2 -0 1 -0 -0 0 -1 -0 2 -0 4 -1 0 1 -0 -3 -1 -6 -1 2 1 -2 -0 0 1 -4
2 2 0 7 -4 2 -0 7 10 -3 2 8 -0 -0 6 4 1 -0 -0 -2 0 -1 1 -0 -1 2 2 2 0 -2 -0 -2 -2 -1 1 -1 1 -1 -4 -4 0 1 0 -0 2 3 -4
6 6 3 -2 -1 -7 2 3 11 -2 0 7 0 -2 -8 -1 1 0 2 -1 0 0 1 -0 1 -0 -4 1 1 -1 -0 -1 1 -2 0 1 1 4 -3 -1 3 2 0 -1 2 -6 7
-1 7 -1 1 4 9 -8 -3 8 -2 19 15 -3 -4 2 3 3 6 -0 -3 -0 -1 -2 -0 4 -2 2 0 -8 1 3 1 -5 8 1 1 -3 1 -4 -2 2 1 -1 0 -0 -2 2
-6 -2 5 1 3 -3 4 0 2 -0 9 10 7 6 0 -3 1 3 -5 -6 -5 3 -5 -7 -0 5 4 -12 -3 -7 3 -2 3 2 -0 1 -0 1 -5 0 1 4 -11 -3 -3 0 2
-0 -1 -3 2 -1 6 -2 6 6 8 7 5 3 0 5 -3 2 -5 1 0 -1 -6 0 -0 1 8 -1 0 2 -1 -1 -1 1 -3 2 0 1 1 -1 -1 2 -3 0 -1 -1 -2 -1
-1 2 4 0 5 2 1 2 -3 4 9 17 9 1 -2 -1 -2 3 3 -1 0 -2 4 6 0 2 -0 -5 1 2 1 2 -3 -2 1 1 1 -0 1 -1 -11 1 -1 -3 -4 -3 -1
-7 -3 1 11 7 4 1 -4 -5 3 6 10 6 12 8 2 -16 -3 2 0 -2 -0 -0 0 1 4 -2 -1 1 0 -2 -4 2 3 0 4 2 5 2 2 -1 0 1 1 -2 -3 1
-1 -4 5 -1 10 5 6 -1 -1 -4 2 7 -9 12 26 2 -10 2 -3 -6 -2 1 -0 0 -0 -1 3 0 1 -0 -2 -2 -1 -0 -0 0 0 1 -1 0 -3 2 0 -1 -3 -9 0
-5 2 -1 -0 2 1 3 -0 -0 -2 8 18 -9 9 16 -2 -8 -1 0 -6 3 2 -2 4 1 6 2 3 2 -2 1 -2 1 -3 -5 -5 -2 -1 2 2 -4 -0 -1 0 -2 6 -1
1 1 -1 3 -2 5 -2 -1 -5 12 2 28 6 7 2 11 -4 -7 3 -2 -1 -3 -3 5 0 -2 -2 1 2 1 1 0 -1 -2 -2 -3 -3 -3 -1 -3 -0 2 -2 2 -2 -4 3
Height
1561 1561 1561 1561 1560 1560 1559 1558 1557 1555 1554 1552 1551 1549 1547 1545 1542 1539 1536 1533 1530 1527 1524 1520 1517 1515 1513 1512 1513 1513 1512 1509 1508 1507 1507 1507 1508 1508 1506 1504 1505 1507 1504 1503 1504 1504 1504
1561 1561 1561 1561 1561 1560 1559 1559 1557 1556 1555 1553 1552 1549 1547 1545 1542 1539 1537 1534 1530 1527 1524 1520 1516 1513 1513 1513 1513 1512 1511 1510 1509 1507 1507 1507 1509 1508 1508 1507 1506 1504 1504 1503 1502 1502 1502
1560 1561 1561 1561 1561 1560 1560 1559 1558 1557 1555 1554 1552 1550 1547 1545 1543 1539 1536 1533 1529 1526 1523 1519 1515 1512 1513 1515 1512 1512 1511 1510 1509 1508 1507 1506 1507 1509 1509 1506 1506 1505 1505 1499 1496 1499 1502
1559 1560 1560 1560 1560 1560 1559 1559 1558 1556 1555 1554 1552 1550 1548 1545 1542 1539 1536 1532 1528 1524 1521 1518 1515 1513 1513 1514 1513 1511 1509 1510 1510 1509 1508 1508 1508 1507 1508 1508 1505 1504 1502 1505 1496 1496 1500
1558 1558 1559 1559 1559 1558 1558 1557 1557 1555 1554 1552 1551 1549 1547 1544 1542 1538 1535 1531 1526 1522 1520 1517 1515 1514 1514 1514 1513 1512 1510 1509 1510 1510 1509 1508 1510 1510 1509 1509 1511 1501 1514 1502 1498 1495 1497
1554 1555 1556 1557 1557 1557 1557 1556 1555 1555 1553 1551 1549 1547 1546 1544 1541 1538 1534 1530 1524 1521 1521 1517 1516 1518 1516 1516 1513 1512 1511 1509 1509 1510 1510 1510 1509 1508 1508 1509 1527 1511 1509 1499 1496 1497 1498
1550 1551 1552 1553 1554 1554 1554 1553 1553 1553 1551 1550 1548 1546 1545 1543 1541 1537 1533 1528 1524 1524 1523 1523 1522 1519 1517 1515 1513 1511 1511 1510 1510 1510 1509 1510 1512 1512 1504 1505 1506 1506 1509 1508 1497 1493 1496
1546 1548 1549 1550 1551 1551 1551 1551 1550 1550 1549 1548 1547 1546 1544 1542 1540 1538 1535 1532 1535 1537 1525 1520 1519 1518 1518 1517 1515 1512 1512 1513 1511 1511 1509 1512 1513 1506 1506 1507 1508 1509 1509 1507 1497 1489 1494
1541 1543 1544 1545 1546 1547 1547 1547 1547 1546 1546 1544 1544 1544 1543 1541 1539 1538 1537 1535 1534 1532 1530 1520 1518 1517 1517 1518 1517 1515 1514 1513 1512 1509 1508 1512 1506 1506 1507 1508 1508 1508 1508 1505 1504 1496 1491
1536 1537 1538 1540 1541 1542 1542 1543 1543 1542 1542 1543 1542 1540 1541 1540 1541 1537 1537 1536 1533 1531 1530 1523 1519 1517 1518 1516 1515 1513 1513 1516 1513 1511 1509 1509 1507 1507 1508 1509 1506 1511 1504 1503 1503 1508 1520
1531 1532 1533 1535 1536 1537 1538 1538 1539 1540 1539 1539 1539 1538 1538 1538 1539 1540 1540 1536 1533 1531 1538 1520 1518 1516 1514 1517 1516 1514 1514 1512 1511 1508 1512 1508 1505 1506 1506 1504 1502 1507 1506 1505 1504 1511 1509
1525 1527 1529 1531 1531 1533 1532 1533 1534 1534 1535 1534 1535 1535 1535 1533 1535 1535 1536 1536 1535 1536 1535 1522 1519 1516 1517 1515 1514 1514 1515 1515 1511 1509 1505 1504 1506 1507 1504 1504 1505 1507 1508 1506 1509 1515 1529
1518 1521 1523 1524 1525 1528 1528 1527 1529 1529 1529 1531 1533 1534 1534 1533 1533 1533 1533 1534 1538 1536 1515 1519 1517 1517 1515 1514 1509 1512 1512 1512 1514 1514 1505 1500 1504 1504 1504 1505 1507 1509 1513 1529 1532 1535 1520
1514 1514 1515 1517 1519 1521 1522 1522 1524 1526 1526 1526 1525 1530 1531 1532 1531 1531 1532 1535 1535 1524 1519 1516 1517 1515 1518 1509 1507 1509 1513 1512 1504 1505 1510 1511 1513 1503 1503 1501 1503 1508 1508 1521 1530 1518 1511
1507 1507 1510 1511 1511 1514 1516 1515 1519 1520 1521 1523 1522 1522 1522 1525 1528 1530 1533 1532 1523 1521 1516 1516 1516 1516 1514 1508 1514 1512 1510 1508 1503 1503 1515 1508 1501 1499 1501 1499 1499 1501 1513 1502 1510 1502 1522
1503 1504 1504 1505 1507 1508 1509 1509 1510 1514 1516 1518 1519 1518 1518 1521 1523 1525 1528 1523 1520 1512 1514 1516 1521 1519 1517 1512 1513 1510 1505 1500 1500 1502 1503 1505 1512 1500 1504 1504 1503 1500 1500 1512 1510 1521 1505
1497 1498 1498 1499 1501 1503 1504 1507 1506 1507 1509 1513 1514 1513 1512 1515 1517 1521 1519 1515 1512 1510 1511 1513 1515 1515 1513 1512 1510 1509 1505 1501 1501 1504 1503 1504 1508 1504 1502 1504 1499 1506 1506 1502 1502 1506 1512
1490 1492 1493 1494 1494 1497 1499 1502 1504 1505 1505 1507 1509 1510 1510 1511 1518 1515 1513 1509 1508 1507 1509 1511 1513 1510 1509 1508 1511 1509 1504 1500 1503 1505 1506 1504 1506 1508 1495 1489 1491 1495 1492 1495 1511 1500 1503
1487 1487 1488 1489 1490 1491 1494 1497 1498 1499 1502 1504 1505 1507 1510 1508 1507 1512 1511 1510 1506 1505 1504 1509 1511 1510 1504 1506 1514 1507 1503 1503 1502 1502 1504 1503 1507 1513 1494 1496 1495 1497 1491 1489 1490 1490 1491
1480 1480 1483 1481 1485 1487 1489 1490 1492 1494 1499 1501 1504 1506 1509 1508 1503 1503 1506 1506 1505 1505 1503 1502 1504 1506 1508 1507 1503 1503 1502 1502 1503 1502 1502 1504 1505 1501 1499 1486 1489 1496 1493 1488 1489 1495 1488
1473 1472 1474 1475 1478 1482 1483 1485 1486 1489 1495 1499 1498 1497 1497 1501 1502 1498 1503 1497 1501 1503 1502 1502 1505 1504 1503 1502 1505 1499 1498 1498 1499 1502 1500 1503 1504 1500 1493 1490 1487 1483 1484 1483 1487 1486 1488
1464 1465 1467 1470 1473 1473 1475 1478 1483 1482 1490 1489 1490 1492 1494 1495 1495 1499 1498 1495 1496 1497 1500 1500 1500 1498 1498 1495 1493 1496 1497 1495 1495 1497 1499 1498 1500 1495 1493 1491 1488 1482 1475 1475 1475 1476 1473
1456 1458 1460 1462 1465 1468 1469 1470 1472 1478 1483 1480 1483 1485 1488 1487 1489 1493 1490 1489 1490 1494 1491 1491 1492 1493 1491 1490 1492 1493 1494 1497 1494 1495 1499 1497 1496 1499 1487 1483 1485 1479 1467 1466 1466 1469 1469
1449 1448 1450 1453 1456 1460 1463 1466 1465 1468 1472 1477 1476 1479 1483 1482 1485 1483 1484 1483 1485 1489 1488 1488 1489 1491 1490 1488 1490 1490 1491 1492 1493 1493 1495 1493 1493 1495 1492 1488 1488 1460 1457 1456 1461 1464 1468
1440 1442 1442 1443 1446 1450 1454 1457 1460 1461 1465 1467 1471 1472 1473 1474 1479 1478 1478 1478 1481 1483 1482 1483 1485 1486 1485 1487 1491 1488 1491 1488 1479 1480 1486 1489 1491 1489 1484 1482 1462 1458 1462 1462 1463 1466 1467
1432 1433 1435 1435 1436 1440 1443 1448 1452 1454 1457 1459 1462 1465 1469 1470 1466 1473 1473 1471 1474 1478 1480 1478 1481 1482 1483 1485 1487 1480 1478 1475 1476 1478 1478 1486 1489 1488 1481 1476 1469 1462 1463 1463 1463 1470 1468
1420 1425 1425 1427 1429 1431 1434 1437 1441 1443 1446 1451 1453 1458 1459 1458 1462 1465 1465 1466 1470 1474 1476 1475 1476 1478 1481 1482 1480 1476 1474 1466 1472 1472 1482 1485 1486 1479 1477 1474 1464 1463 1466 1465 1472 1471 1470
1413 1413 1413 1418 1421 1422 1425 1428 1432 1435 1437 1443 1445 1447 1452 1448 1456 1458 1459 1460 1464 1465 1470 1473 1476 1474 1480 1478 1476 1470 1470 1465 1467 1459 1467 1474 1480 1481 1477 1477 1470 1467 1467 1469 1470 1471 1472
1401 1402 1405 1407 1409 1413 1417 1417 1424 1426 1431 1438 1437 1439 1444 1445 1451 1450 1454 1455 1455 1458 1463 1464 1461 1462 1466 1469 1468 1467 1467 1468 1468 1466 1460 1470 1464 1466 1466 1468 1469 1469 1469 1469 1470 1471 1474